sat.trackr.live / text

‹ back to catalog

STARLINK-35418

NORAD 65879 · 2025-223AB

PAYLOAD ACTIVE UNKNOWN

§ Identity

Operator
Country
US
Launch date
2025-10-03
Launch site
AFWTR
Launch vehicle
Mass (kg)
RCS (m²)

Purposes: comms

External: N2YO · Heavens-Above · Gunter

§ Orbital elements

Epoch: 2026-05-24T18:10:12.975168Z

Period
93.85 min
Inclination
53.1607°
Eccentricity
0.0000947
Mean motion
15.34407565 rev/d
Perigee alt
462.0 km
Apogee alt
463.3 km
Semi-major
6,840.8 km
B*
8.3806e-4
RAAN
300.7228°
Arg perigee
77.3963°
Mean anomaly
282.7145°
Rev number
3,585

§ Raw data

STARLINK-354181 65879U 25223AB  26144.75709462  .00028052  00000+0  83806-3 0  99902 65879  53.1607 300.7228 0000947  77.3963 282.7145 15.34407565 35856

JSON: /api/v1/satellites/65879 · /tle

For live sub-satellite position, see the globe view (requires WebGL).

§ Visibility from observer

Set your observer location to see the next 7 days of passes ≥ 10°. The values pass through the URL so the page stays shareable.

No JS? Fill the form by hand. The geolocation button needs JavaScript.